AALTO-1 (42775 NORAD) Tracking and Keplerian Element Data

This shows tracking and keplerian element data for the satellite.

Feedback or suggestion? Click here.




ElementValue
Catalog42775
NameAALTO-1
Epoch Orbit7801
Epoch Day322.91186586
Epoch Year2018
RAAN19.3378
Inclination97.3815
Eccentricity0.0012734
Argument of Perigee239.3667
Mean Anonmoly120.6314
Mean Motion15.209969
Decay Rate7.44E-06
L11 42775U 17036L 18322.91186586 .00000744 00000-0 36597-4 0 9991
L22 42775 97.3815 19.3378 0012734 239.3667 120.6314 15.20996900 78018

Live tracking and technical data element details for AALTO-1 (NORAD 42775). AALTO-1 can be tracked NOW for your location showing map with azimuth and elevation plus other details from your city location.

Track the satellite on the map from your city or location and see movement details for azimuth, elevation, latitude, longitude, range, height, and movement on the map or in text.







IsCatalogInMostPopularTable: catalog: 42775, numindb: 148
Update: records affected: 1



GetName: 42775 AALTO-1

Hit Count: updated at: Mon, 19 Nov 2018 10:59:03 GMT